Weather History for Red Oak, IA

Change the Weather History Date:

Wednesday, March 20, 2013

  Actual Average Record
Temperature  
Mean Temperature 25 °F -  
Max Temperature 35 °F 53 °F 73 °F (1997)
Min Temperature 15 °F 29 °F 8 °F (1951)
Degree Days  
Heating Degree Days 40    
Moisture  
Dew Point 7 °F    
Average Humidity 50    
Maximum Humidity 79    
Minimum Humidity 23    
Precipitation  
Precipitation 0.00 in - - ()
Sea Level Pressure  
Sea Level Pressure 30.29 in    
Wind  
Wind Speed 11 mph (NW)    
Max Wind Speed 18 mph    
Max Gust Speed 25 mph    
Visibility 10 miles    
Events      
Averages and records for this station are not official NWS values.
T = Trace of Precipitation, MM = Missing Value Source: NWS Daily Summary

Daily Weather History Graph

Daily Weather History Graph

Search for Another Location

Airport:

Trip Planner

Search our weather history database for the weather conditions in past years. The results will help you decide how hot, cold, wet, or windy it might be!

Date:

Astronomy

Mar. 20, 2013 Rise Set
Actual Time 7:23 AM CDT 7:33 PM CDT
Civil Twilight 6:56 AM CDT 8:00 PM CDT
Nautical Twilight 6:24 AM CDT 8:33 PM CDT
Astronomical Twilight 5:51 AM CDT 9:05 PM CDT
Moon 1:06 PM CDT (3/20) 3:06 AM CDT (3/20)
Length of Visible Light 13h 04m
Length of Day
12h 09m
First Quarter, 59% of the Moon is Illuminated
Mar 20
First Quarter
Mar 27
Full
Apr 2
Last Quarter
Apr 10
New
Apr 18
First Quarter

Hourly Weather History & Observations

Time (CDT) Temp. Windchill Dew Point Humidity Pressure Visibility Wind Dir Wind Speed Gust Speed Precip Events Conditions
12:15 AM 28.4 °F 19.1 °F 15.8 °F 59% 30.30 in 10.0 mi NNW 10.4 mph - N/A   Clear
12:35 AM 28.4 °F 18.0 °F 15.8 °F 59% 30.31 in 10.0 mi NNW 12.7 mph - N/A   Clear
12:55 AM 26.6 °F 16.8 °F 15.8 °F 64% 30.31 in 10.0 mi NNW 10.4 mph - N/A   Clear
1:15 AM 26.6 °F 16.8 °F 17.6 °F 69% 30.32 in 10.0 mi NNW 10.4 mph 17.3 mph N/A   Clear
1:35 AM 26.6 °F 15.7 °F 17.6 °F 69% 30.32 in 10.0 mi NNW 12.7 mph - N/A   Mostly Cloudy
1:55 AM 24.8 °F 14.0 °F 17.6 °F 74% 30.33 in 10.0 mi NW 11.5 mph 18.4 mph N/A   Mostly Cloudy
2:15 AM 24.8 °F 12.4 °F 15.8 °F 69% 30.33 in 10.0 mi NNW 15.0 mph 19.6 mph N/A   Scattered Clouds
2:35 AM 23.0 °F 9.6 °F 14.0 °F 68% 30.34 in 10.0 mi NW 16.1 mph 21.9 mph N/A   Clear
2:55 AM 21.2 °F 9.5 °F 12.2 °F 68% 30.34 in 10.0 mi NW 11.5 mph 17.3 mph N/A   Clear
3:15 AM 21.2 °F 9.5 °F 12.2 °F 68% 30.34 in 10.0 mi NNW 11.5 mph - N/A   Clear
3:35 AM 21.2 °F 7.8 °F 10.4 °F 63% 30.35 in 10.0 mi NW 15.0 mph 19.6 mph N/A   Clear
3:55 AM 21.2 °F 7.8 °F 8.6 °F 58% 30.36 in 10.0 mi NNW 15.0 mph 21.9 mph N/A   Clear
4:15 AM 19.4 °F 6.0 °F 10.4 °F 68% 30.35 in 10.0 mi NW 13.8 mph 18.4 mph N/A   Clear
4:35 AM 19.4 °F 5.5 °F 10.4 °F 68% 30.35 in 10.0 mi NW 15.0 mph 21.9 mph N/A   Clear
4:55 AM 19.4 °F 6.6 °F 10.4 °F 68% 30.35 in 10.0 mi NW 12.7 mph - N/A   Clear
5:15 AM 19.4 °F 5.0 °F 8.6 °F 63% 30.35 in 10.0 mi NW 16.1 mph 20.7 mph N/A   Clear
5:35 AM 19.4 °F 6.0 °F 8.6 °F 63% 30.36 in 10.0 mi NW 13.8 mph 23.0 mph N/A   Clear
5:55 AM 17.6 °F 4.3 °F 8.6 °F 68% 30.37 in 10.0 mi NNW 12.7 mph 23.0 mph N/A   Clear
6:15 AM 17.6 °F 2.7 °F 6.8 °F 63% 30.37 in 10.0 mi NW 16.1 mph 21.9 mph N/A   Clear
6:35 AM 17.6 °F 1.7 °F 6.8 °F 63% 30.37 in 10.0 mi NNW 18.4 mph 21.9 mph N/A   Clear
6:55 AM 17.6 °F 5.7 °F 6.8 °F 63% 30.38 in 10.0 mi NNW 10.4 mph 19.6 mph N/A   Scattered Clouds
7:15 AM 17.6 °F 5.7 °F 6.8 °F 63% 30.38 in 10.0 mi NNW 10.4 mph - N/A   Scattered Clouds
7:35 AM 17.6 °F 4.3 °F 6.8 °F 63% 30.38 in 10.0 mi NNW 12.7 mph 21.9 mph N/A   Clear
7:55 AM 15.8 °F 0.9 °F 3.2 °F 58% 30.38 in 10.0 mi NNW 15.0 mph 20.7 mph N/A   Clear
8:15 AM 17.6 °F 3.7 °F 5.0 °F 58% 30.39 in 10.0 mi NW 13.8 mph - N/A   Clear
8:35 AM 17.6 °F 3.2 °F 5.0 °F 58% 30.39 in 10.0 mi NNW 15.0 mph 18.4 mph N/A   Clear
8:55 AM 17.6 °F 3.2 °F 5.0 °F 58% 30.39 in 10.0 mi NNW 15.0 mph 20.7 mph N/A   Clear
9:15 AM 19.4 °F 6.0 °F 5.0 °F 54% 30.39 in 10.0 mi NNW 13.8 mph 19.6 mph N/A   Clear
9:35 AM 19.4 °F 5.5 °F 5.0 °F 54% 30.39 in 10.0 mi NNW 15.0 mph 25.3 mph N/A   Clear
9:55 AM 21.2 °F 6.8 °F 3.2 °F 46% 30.39 in 10.0 mi North 17.3 mph 21.9 mph N/A   Clear
10:15 AM 21.2 °F 9.5 °F 3.2 °F 46% 30.38 in 10.0 mi NNW 11.5 mph 20.7 mph N/A   Clear
10:35 AM 23.0 °F 10.1 °F 3.2 °F 43% 30.38 in 10.0 mi NNW 15.0 mph 18.4 mph N/A   Clear
10:55 AM 23.0 °F 10.1 °F 1.4 °F 39% 30.38 in 10.0 mi NNW 15.0 mph - N/A   Clear
11:15 AM 24.8 °F 13.4 °F 1.4 °F 36% 30.38 in 10.0 mi NW 12.7 mph 18.4 mph N/A   Clear
11:35 AM 24.8 °F 14.0 °F 1.4 °F 36% 30.38 in 10.0 mi NW 11.5 mph 21.9 mph N/A   Clear
11:55 AM 26.6 °F 15.2 °F 1.4 °F 34% 30.37 in 10.0 mi NW 13.8 mph 19.6 mph N/A   Clear
12:15 PM 26.6 °F 16.8 °F 1.4 °F 34% 30.36 in 10.0 mi NW 10.4 mph 18.4 mph N/A   Clear
12:35 PM 28.4 °F 20.4 °F 1.4 °F 31% 30.35 in 10.0 mi WNW 8.1 mph 17.3 mph N/A   Clear
12:55 PM 28.4 °F 20.4 °F 1.4 °F 31% 30.35 in 10.0 mi West 8.1 mph 19.6 mph N/A   Clear
1:15 PM 30.2 °F 20.2 °F 3.2 °F 32% 30.34 in 10.0 mi NNW 12.7 mph 17.3 mph N/A   Clear
1:35 PM 28.4 °F 19.1 °F 1.4 °F 31% 30.33 in 10.0 mi NW 10.4 mph 16.1 mph N/A   Clear
1:55 PM 30.2 °F 19.3 °F 1.4 °F 29% 30.31 in 10.0 mi West 15.0 mph 20.7 mph N/A   Clear
2:15 PM 30.2 °F 20.8 °F 1.4 °F 29% 30.30 in 10.0 mi NW 11.5 mph 19.6 mph N/A   Clear
2:35 PM 32.0 °F 21.6 °F 1.4 °F 27% 30.29 in 10.0 mi NW 15.0 mph 20.7 mph N/A   Clear
2:55 PM 32.0 °F 22.5 °F 1.4 °F 27% 30.26 in 10.0 mi NW 12.7 mph 19.6 mph N/A   Clear
3:15 PM 32.0 °F 21.6 °F 1.4 °F 27% 30.25 in 10.0 mi NW 15.0 mph 18.4 mph N/A   Clear
3:35 PM 33.8 °F 25.8 °F 1.4 °F 25% 30.25 in 10.0 mi WNW 10.4 mph 19.6 mph N/A   Clear
3:55 PM 33.8 °F 26.4 °F 1.4 °F 25% 30.23 in 10.0 mi NW 9.2 mph 16.1 mph N/A   Clear
4:15 PM 33.8 °F 25.8 °F -0.4 °F 23% 30.23 in 10.0 mi NW 10.4 mph 19.6 mph N/A   Clear
4:35 PM 35.6 °F 26.6 °F 1.4 °F 24% 30.22 in 10.0 mi NW 13.8 mph - N/A   Clear
4:55 PM 35.6 °F 27.1 °F 1.4 °F 24% 30.21 in 10.0 mi NW 12.7 mph 19.6 mph N/A   Clear
5:15 PM 35.6 °F 27.5 °F 3.2 °F 26% 30.20 in 10.0 mi WNW 11.5 mph 17.3 mph N/A   Clear
5:35 PM 35.6 °F 26.2 °F 1.4 °F 24% 30.20 in 10.0 mi NW 15.0 mph - N/A   Clear
5:55 PM 33.8 °F 25.3 °F 1.4 °F 25% 30.19 in 10.0 mi NNW 11.5 mph 16.1 mph N/A   Clear
6:15 PM 33.8 °F 25.3 °F 3.2 °F 28% 30.18 in 10.0 mi NW 11.5 mph 16.1 mph N/A   Clear
6:35 PM 33.8 °F 27.0 °F 3.2 °F 28% 30.18 in 10.0 mi NNW 8.1 mph - N/A   Clear
6:55 PM 32.0 °F 24.2 °F 3.2 °F 30% 30.17 in 10.0 mi NNW 9.2 mph - N/A   Clear
7:15 PM 32.0 °F 24.2 °F 6.8 °F 35% 30.17 in 10.0 mi NNW 9.2 mph - N/A   Clear
7:35 PM 28.4 °F 24.6 °F 10.4 °F 47% 30.16 in 10.0 mi North 3.5 mph - N/A   Clear
7:55 PM 26.6 °F - 8.6 °F 47% 30.16 in 10.0 mi Calm Calm - N/A   Clear
8:15 PM 26.6 °F 20.0 °F 10.4 °F 51% 30.15 in 10.0 mi North 5.8 mph - N/A   Clear
8:35 PM 24.8 °F - 12.2 °F 59% 30.16 in 10.0 mi Calm Calm - N/A   Clear
8:55 PM 24.8 °F - 10.4 °F 54% 30.16 in 10.0 mi Calm Calm - N/A   Clear
9:15 PM 24.8 °F - 10.4 °F 54% 30.16 in 10.0 mi Calm Calm - N/A   Clear
9:35 PM 21.2 °F - 10.4 °F 63% 30.16 in 10.0 mi Calm Calm - N/A   Clear
9:55 PM 19.4 °F - 10.4 °F 68% 30.15 in 10.0 mi Calm Calm - N/A   Clear
10:15 PM 21.2 °F - 10.4 °F 63% 30.15 in 10.0 mi Calm Calm - N/A   Clear
10:35 PM 21.2 °F - 12.2 °F 68% 30.15 in 10.0 mi Calm Calm - N/A   Clear
10:55 PM 21.2 °F - 10.4 °F 63% 30.14 in 10.0 mi Calm Calm - N/A   Clear
11:15 PM 17.6 °F - 12.2 °F 79% 30.13 in 10.0 mi Calm Calm - N/A   Clear
11:35 PM 19.4 °F - 12.2 °F 74% 30.13 in 10.0 mi Calm Calm - N/A   Clear
11:55 PM 19.4 °F - 10.4 °F 68% 30.12 in 10.0 mi Calm Calm - N/A   Clear